| time (UTC) | temp F | wind direction | speed MPH | gust MPH | rain 1hr in | rain 24hr in | rain mn in | humidity % | barometer mb |
| 20260906022517 | 75 | 248 | 6.0 | 9.0 | 0.00 | 0.00 | 0.00 | 43 | 1012.4 |
| 20260906022020 | 76 | 250 | 6.0 | 11.0 | 0.00 | 0.00 | 0.00 | 40 | 1012.4 |
| 20260906021022 | 77 | 250 | 8.0 | 11.0 | 0.00 | 0.00 | 0.00 | 36 | 1012.5 |
| 20260906020517 | 77 | 264 | 7.0 | 10.0 | 0.00 | 0.00 | 0.00 | 36 | 1012.5 |
| 20260906020048 | 78 | 267 | 7.0 | 10.0 | 0.00 | 0.00 | 0.00 | 36 | 1012.5 |
| 20260906014019 | 78 | 237 | 6.0 | 10.0 | 0.00 | 0.00 | 0.00 | 37 | 1012.5 |
| 20260906013520 | 78 | 232 | 6.0 | 9.0 | 0.00 | 0.00 | 0.00 | 37 | 1012.4 |
| 20260906013037 | 78 | 244 | 5.0 | 9.0 | 0.00 | 0.00 | 0.00 | 36 | 1012.5 |
| 20260906012518 | 79 | 238 | 6.0 | 9.0 | 0.00 | 0.00 | 0.00 | 36 | 1012.4 |
| 20260906012018 | 79 | 238 | 4.0 | 8.0 | 0.00 | 0.00 | 0.00 | 36 | 1012.5 |
| 20260906010524 | 79 | 221 | 5.0 | 9.0 | 0.00 | 0.00 | 0.00 | 35 | 1012.5 |
| 20260906005518 | 79 | 242 | 2.0 | 7.0 | 0.00 | 0.00 | 0.00 | 35 | 1012.5 |
| 20260906005018 | 79 | 214 | 3.0 | 5.0 | 0.00 | 0.00 | 0.00 | 35 | 1012.5 |
| 20260906004021 | 80 | 271 | 5.0 | 10.0 | 0.00 | 0.00 | 0.00 | 34 | 1012.5 |
| 20260906003517 | 80 | 245 | 6.0 | 11.0 | 0.00 | 0.00 | 0.00 | 34 | 1012.5 |
| 20260906003035 | 81 | 261 | 7.0 | 11.0 | 0.00 | 0.00 | 0.00 | 33 | 1012.4 |
| 20260906002019 | 82 | 228 | 6.0 | 12.0 | 0.00 | 0.00 | 0.00 | 33 | 1012.4 |
| 20260906001019 | 83 | 218 | 7.0 | 13.0 | 0.00 | 0.00 | 0.00 | 31 | 1012.5 |
| 20260906000518 | 83 | 214 | 9.0 | 16.0 | 0.00 | 0.00 | 0.00 | 31 | 1012.4 |
| 20260905235521 | 83 | 282 | 9.0 | 13.0 | 0.00 | 0.00 | 0.00 | 32 | 1012.4 |
| 20260905235020 | 83 | 224 | 7.0 | 13.0 | 0.00 | 0.00 | 0.00 | 31 | 1012.5 |
| 20260905234017 | 83 | 211 | 5.0 | 11.0 | 0.00 | 0.00 | 0.00 | 32 | 1012.5 |
| 20260905233518 | 83 | 297 | 6.0 | 11.0 | 0.00 | 0.00 | 0.00 | 34 | 1012.5 |
| 20260905232524 | 84 | 226 | 8.0 | 16.0 | 0.00 | 0.00 | 0.00 | 31 | 1012.5 |
| 20260905231022 | 83 | 254 | 6.0 | 10.0 | 0.00 | 0.00 | 0.00 | 33 | 1012.7 |
| 20260905230519 | 84 | 208 | 6.0 | 10.0 | 0.00 | 0.00 | 0.00 | 32 | 1012.7 |
| 20260905230059 | 82 | 205 | 3.0 | 7.0 | 0.00 | 0.00 | 0.00 | 35 | 1012.8 |
| 20260905225515 | 82 | 0 | 2.0 | 8.0 | 0.00 | 0.00 | 0.00 | 36 | 1012.9 |
| 20260905225018 | 83 | 0 | 4.0 | 11.0 | 0.00 | 0.00 | 0.00 | 34 | 1012.9 |
| 20260905224024 | 82 | 248 | 3.0 | 11.0 | 0.00 | 0.00 | 0.00 | 36 | 1013.0 |
| 20260905223518 | 83 | 261 | 7.0 | 11.0 | 0.00 | 0.00 | 0.00 | 33 | 1013.0 |
| 20260905222519 | 83 | 312 | 6.0 | 10.0 | 0.00 | 0.00 | 0.00 | 38 | 1013.1 |
| 20260905222021 | 81 | 259 | 2.0 | 9.0 | 0.00 | 0.00 | 0.00 | 36 | 1013.1 |
| 20260905221537 | 82 | 87 | 1.0 | 9.0 | 0.00 | 0.00 | 0.00 | 37 | 1013.2 |
| 20260905221018 | 83 | 209 | 5.0 | 9.0 | 0.00 | 0.00 | 0.00 | 34 | 1013.3 |
| 20260905220518 | 82 | 227 | 4.0 | 10.0 | 0.00 | 0.00 | 0.00 | 35 | 1013.3 |
| 20260905215519 | 83 | 284 | 4.0 | 12.0 | 0.00 | 0.00 | 0.00 | 36 | 1013.4 |
| 20260905215019 | 84 | 239 | 6.0 | 12.0 | 0.00 | 0.00 | 0.00 | 36 | 1013.4 |
| 20260905214536 | 83 | 263 | 2.0 | 9.0 | 0.00 | 0.00 | 0.00 | 36 | 1013.3 |
| 20260905213523 | 81 | 209 | 5.0 | 12.0 | 0.00 | 0.00 | 0.00 | 37 | 1013.4 |
| 20260905212521 | 81 | 234 | 4.0 | 10.0 | 0.00 | 0.00 | 0.00 | 40 | 1013.5 |
| 20260905212018 | 82 | 221 | 6.0 | 11.0 | 0.00 | 0.00 | 0.00 | 40 | 1013.6 |
| 20260905211019 | 82 | 266 | 6.0 | 11.0 | 0.00 | 0.00 | 0.00 | 38 | 1013.7 |
| 20260905210520 | 81 | 211 | 4.0 | 11.0 | 0.00 | 0.00 | 0.00 | 37 | 1013.7 |
| 20260905205521 | 80 | 259 | 5.0 | 9.0 | 0.00 | 0.00 | 0.00 | 39 | 1013.8 |
| 20260905205019 | 80 | 334 | 2.0 | 10.0 | 0.00 | 0.00 | 0.00 | 39 | 1013.8 |
| 20260905204016 | 79 | 92 | 3.0 | 7.0 | 0.00 | 0.00 | 0.00 | 42 | 1013.8 |
| 20260905202517 | 78 | 223 | 5.0 | 11.0 | 0.00 | 0.00 | 0.00 | 42 | 1013.8 |
| 20260905202020 | 78 | 317 | 6.0 | 10.0 | 0.00 | 0.00 | 0.00 | 46 | 1013.9 |
| 20260905201019 | 78 | 296 | 2.0 | 10.0 | 0.00 | 0.00 | 0.00 | 47 | 1013.9 |
| 20260905195520 | 78 | 270 | 3.0 | 15.0 | 0.00 | 0.00 | 0.00 | 44 | 1014.1 |
| 20260905195022 | 78 | 230 | 6.0 | 15.0 | 0.00 | 0.00 | 0.00 | 44 | 1014.1 |
| 20260905194019 | 76 | 251 | 2.0 | 9.0 | 0.00 | 0.00 | 0.00 | 51 | 1014.2 |
| 20260905193515 | 77 | 252 | 4.0 | 9.0 | 0.00 | 0.00 | 0.00 | 47 | 1014.2 |
| 20260905192020 | 77 | 251 | 4.0 | 9.0 | 0.00 | 0.00 | 0.00 | 50 | 1014.3 |
| 20260905191020 | 75 | 327 | 2.0 | 11.0 | 0.00 | 0.00 | 0.00 | 50 | 1014.5 |
| 20260905190522 | 76 | 296 | 5.0 | 11.0 | 0.00 | 0.00 | 0.00 | 50 | 1014.5 |
| 20260905185518 | 76 | 311 | 6.0 | 10.0 | 0.00 | 0.00 | 0.00 | 49 | 1014.5 |
| 20260905185017 | 76 | 221 | 6.0 | 10.0 | 0.00 | 0.00 | 0.00 | 52 | 1014.5 |
| 20260905184018 | 76 | 167 | 4.0 | 11.0 | 0.00 | 0.00 | 0.00 | 50 | 1014.5 |
| 20260905183518 | 75 | 243 | 6.0 | 11.0 | 0.00 | 0.00 | 0.00 | 53 | 1014.7 |
| 20260905182519 | 75 | 270 | 6.0 | 11.0 | 0.00 | 0.00 | 0.00 | 55 | 1014.6 |
| 20260905182017 | 74 | 276 | 3.0 | 9.0 | 0.00 | 0.00 | 0.00 | 53 | 1014.5 |
| 20260905181539 | 74 | 213 | 6.0 | 9.0 | 0.00 | 0.00 | 0.00 | 53 | 1014.6 |
| 20260905181018 | 73 | 188 | 6.0 | 9.0 | 0.00 | 0.00 | 0.00 | 55 | 1014.6 |
| 20260905180517 | 72 | 228 | 1.0 | 10.0 | 0.00 | 0.00 | 0.00 | 54 | 1014.6 |
| 20260905175519 | 72 | 254 | 3.0 | 8.0 | 0.00 | 0.00 | 0.00 | 58 | 1014.5 |
| 20260905175020 | 72 | 227 | 5.0 | 8.0 | 0.00 | 0.00 | 0.00 | 58 | 1014.5 |
| 20260905174018 | 71 | 249 | 3.0 | 6.0 | 0.00 | 0.00 | 0.00 | 59 | 1014.3 |
| 20260905173520 | 71 | 227 | 3.0 | 6.0 | 0.00 | 0.00 | 0.00 | 59 | 1014.4 |
| 20260905172517 | 70 | 230 | 2.0 | 7.0 | 0.00 | 0.00 | 0.00 | 59 | 1014.3 |
| 20260905172019 | 70 | 237 | 1.0 | 6.0 | 0.00 | 0.00 | 0.00 | 60 | 1014.3 |
| 20260905171018 | 69 | 188 | 2.0 | 7.0 | 0.00 | 0.00 | 0.00 | 63 | 1014.4 |
| 20260905165019 | 67 | 252 | 1.0 | 4.0 | 0.00 | 0.00 | 0.00 | 67 | 1014.3 |
| 20260905164020 | 66 | 0 | 1.0 | 6.0 | 0.00 | 0.00 | 0.00 | 69 | 1014.3 |
| 20260905163521 | 66 | 180 | 1.0 | 6.0 | 0.00 | 0.00 | 0.00 | 69 | 1014.3 |
| 20260905161020 | 63 | 277 | 2.0 | 8.0 | 0.00 | 0.00 | 0.00 | 76 | 1014.3 |
| 20260905160519 | 62 | 220 | 0.0 | 8.0 | 0.00 | 0.00 | 0.00 | 77 | 1014.3 |
| 20260905155520 | 60 | 192 | 3.0 | 6.0 | 0.00 | 0.00 | 0.00 | 81 | 1014.3 |
| 20260905155019 | 59 | 218 | 0.0 | 6.0 | 0.00 | 0.00 | 0.00 | 84 | 1014.4 |
| 20260905154546 | 58 | 0 | 0.0 | 4.0 | 0.00 | 0.00 | 0.00 | 87 | 1014.4 |
| 20260905154018 | 58 | 0 | 0.0 | 0.0 | 0.00 | 0.00 | 0.00 | 88 | 1014.3 |
| 20260905153516 | 57 | 0 | 0.0 | 2.0 | 0.00 | 0.00 | 0.00 | 89 | 1014.3 |
| 20260905152520 | 55 | 0 | 0.0 | 2.0 | 0.00 | 0.00 | 0.00 | 91 | 1014.3 |
| 20260905152020 | 55 | 0 | 0.0 | 2.0 | 0.00 | 0.00 | 0.00 | 92 | 1014.3 |
| 20260905151019 | 53 | 0 | 0.0 | 1.0 | 0.00 | 0.00 | 0.00 | 92 | 1014.3 |
| 20260905150518 | 52 | 0 | 0.0 | 1.0 | 0.00 | 0.00 | 0.00 | 92 | 1014.3 |
| 20260905145521 | 50 | 0 | 0.0 | 1.0 | 0.00 | 0.00 | 0.00 | 91 | 1014.2 |
| 20260905145017 | 50 | 0 | 0.0 | 1.0 | 0.00 | 0.00 | 0.00 | 91 | 1014.3 |
| 20260905142518 | 48 | 0 | 0.0 | 0.0 | 0.00 | 0.00 | 0.00 | 89 | 1014.2 |
| 20260905142017 | 47 | 0 | 0.0 | 0.0 | 0.00 | 0.00 | 0.00 | 88 | 1014.1 |
| 20260905141535 | 47 | 0 | 0.0 | 0.0 | 0.00 | 0.00 | 0.00 | 88 | 1014.1 |
| 20260905141023 | 47 | 0 | 0.0 | 0.0 | 0.00 | 0.00 | 0.00 | 87 | 1014.0 |
| 20260905135520 | 47 | 0 | 0.0 | 0.0 | 0.00 | 0.00 | 0.00 | 87 | 1014.0 |
| 20260905135020 | 48 | 0 | 0.0 | 0.0 | 0.00 | 0.00 | 0.00 | 87 | 1014.0 |
| 20260905134017 | 48 | 0 | 0.0 | 0.0 | 0.00 | 0.00 | 0.00 | 87 | 1013.9 |
| 20260905133523 | 48 | 0 | 0.0 | 0.0 | 0.00 | 0.00 | 0.00 | 87 | 1013.8 |
| 20260905133038 | 48 | 0 | 0.0 | 0.0 | 0.00 | 0.00 | 0.00 | 87 | 1013.9 |
| 20260905132516 | 48 | 0 | 0.0 | 0.0 | 0.00 | 0.00 | 0.00 | 87 | 1013.9 |
| 20260905132017 | 48 | 0 | 0.0 | 0.0 | 0.00 | 0.00 | 0.00 | 87 | 1013.7 |
| 20260905125520 | 49 | 0 | 0.0 | 0.0 | 0.00 | 0.00 | 0.00 | 87 | 1013.6 |
| 20260905125023 | 49 | 0 | 0.0 | 0.0 | 0.00 | 0.00 | 0.00 | 87 | 1013.7 |
| 20260905124017 | 49 | 0 | 0.0 | 0.0 | 0.00 | 0.00 | 0.00 | 86 | 1013.7 |
| 20260905123518 | 49 | 0 | 0.0 | 0.0 | 0.00 | 0.00 | 0.00 | 86 | 1013.6 |
| 20260905122522 | 49 | 0 | 0.0 | 0.0 | 0.00 | 0.00 | 0.00 | 87 | 1013.7 |
| 20260905122016 | 50 | 0 | 0.0 | 0.0 | 0.00 | 0.00 | 0.00 | 87 | 1013.6 |
| 20260905115519 | 50 | 0 | 0.0 | 0.0 | 0.00 | 0.00 | 0.00 | 87 | 1013.8 |
| 20260905115017 | 50 | 0 | 0.0 | 2.0 | 0.00 | 0.00 | 0.00 | 87 | 1013.7 |
| 20260905114018 | 50 | 80 | 1.0 | 3.0 | 0.00 | 0.00 | 0.00 | 87 | 1013.7 |
| 20260905113519 | 50 | 80 | 2.0 | 3.0 | 0.00 | 0.00 | 0.00 | 87 | 1013.7 |
| 20260905112519 | 50 | 91 | 1.0 | 3.0 | 0.00 | 0.00 | 0.00 | 86 | 1013.6 |
| 20260905110519 | 51 | 0 | 0.0 | 3.0 | 0.00 | 0.00 | 0.00 | 86 | 1013.9 |
| 20260905105519 | 51 | 76 | 1.0 | 3.0 | 0.00 | 0.00 | 0.00 | 86 | 1014.0 |
| 20260905105020 | 51 | 0 | 0.0 | 0.0 | 0.00 | 0.00 | 0.00 | 86 | 1014.0 |
| 20260905104016 | 51 | 0 | 0.0 | 0.0 | 0.00 | 0.00 | 0.00 | 85 | 1014.0 |
| 20260905103517 | 51 | 0 | 0.0 | 3.0 | 0.00 | 0.00 | 0.00 | 85 | 1013.9 |
| 20260905102020 | 52 | 80 | 1.0 | 4.0 | 0.00 | 0.00 | 0.00 | 83 | 1014.1 |
| 20260905101019 | 53 | 0 | 0.0 | 0.0 | 0.00 | 0.00 | 0.00 | 83 | 1014.1 |
| 20260905100520 | 53 | 0 | 0.0 | 0.0 | 0.00 | 0.00 | 0.00 | 84 | 1014.1 |
| 20260905095519 | 53 | 0 | 0.0 | 0.0 | 0.00 | 0.00 | 0.00 | 84 | 1014.0 |
| 20260905095020 | 53 | 0 | 0.0 | 0.0 | 0.00 | 0.00 | 0.00 | 84 | 1014.1 |
| 20260905094015 | 54 | 0 | 0.0 | 0.0 | 0.00 | 0.00 | 0.00 | 84 | 1014.1 |
| 20260905093516 | 54 | 0 | 0.0 | 0.0 | 0.00 | 0.00 | 0.00 | 83 | 1014.1 |
| 20260905092019 | 55 | 0 | 0.0 | 0.0 | 0.00 | 0.00 | 0.00 | 82 | 1014.1 |
| 20260905091022 | 55 | 0 | 0.0 | 0.0 | 0.00 | 0.00 | 0.00 | 82 | 1014.2 |
| 20260905090519 | 56 | 0 | 0.0 | 0.0 | 0.00 | 0.00 | 0.00 | 81 | 1014.2 |
| 20260905090037 | 56 | 0 | 0.0 | 0.0 | 0.00 | 0.00 | 0.00 | 79 | 1014.1 |
| 20260905085521 | 56 | 0 | 0.0 | 0.0 | 0.00 | 0.01 | 0.00 | 79 | 1014.2 |
| 20260905085015 | 56 | 0 | 0.0 | 0.0 | 0.00 | 0.01 | 0.00 | 79 | 1014.2 |
| 20260905082519 | 56 | 0 | 0.0 | 1.0 | 0.00 | 0.01 | 0.00 | 78 | 1014.3 |
| 20260905082017 | 56 | 0 | 0.0 | 0.0 | 0.00 | 0.01 | 0.00 | 77 | 1014.3 |
| 20260905081019 | 56 | 0 | 0.0 | 1.0 | 0.00 | 0.01 | 0.00 | 76 | 1014.2 |
| 20260905080517 | 56 | 0 | 0.0 | 1.0 | 0.00 | 0.01 | 0.00 | 76 | 1014.2 |
| 20260905080040 | 57 | 0 | 0.0 | 0.0 | 0.00 | 0.01 | 0.00 | 76 | 1014.2 |
| 20260905075518 | 56 | 0 | 0.0 | 0.0 | 0.00 | 0.02 | 0.00 | 77 | 1014.1 |
| 20260905075021 | 56 | 0 | 0.0 | 0.0 | 0.00 | 0.02 | 0.00 | 76 | 1014.1 |
| 20260905074019 | 57 | 0 | 0.0 | 4.0 | 0.00 | 0.02 | 0.00 | 77 | 1014.1 |
| 20260905073524 | 56 | 169 | 0.0 | 4.0 | 0.00 | 0.02 | 0.00 | 76 | 1014.0 |
| 20260905072520 | 56 | 0 | 0.0 | 0.0 | 0.00 | 0.02 | 0.00 | 77 | 1014.0 |
| 20260905072019 | 57 | 0 | 0.0 | 0.0 | 0.00 | 0.02 | 0.00 | 76 | 1014.1 |
| 20260905071021 | 56 | 0 | 0.0 | 3.0 | 0.00 | 0.02 | 0.00 | 78 | 1014.0 |
| 20260905070520 | 56 | 98 | 1.0 | 3.0 | 0.00 | 0.02 | 0.00 | 78 | 1014.0 |
| 20260905065517 | 56 | 92 | 1.0 | 4.0 | 0.00 | 0.02 | 0.02 | 78 | 1013.9 |
| 20260905065018 | 57 | 102 | 0.0 | 4.0 | 0.00 | 0.02 | 0.02 | 76 | 1013.9 |
| 20260905064537 | 57 | 0 | 0.0 | 3.0 | 0.00 | 0.02 | 0.02 | 78 | 1013.7 |
| 20260905063520 | 56 | 0 | 0.0 | 6.0 | 0.00 | 0.02 | 0.02 | 79 | 1013.8 |
| 20260905062517 | 56 | 98 | 3.0 | 6.0 | 0.00 | 0.02 | 0.02 | 77 | 1013.7 |
| 20260905062020 | 57 | 81 | 2.0 | 5.0 | 0.00 | 0.02 | 0.02 | 74 | 1013.7 |
| 20260905061020 | 59 | 183 | 1.0 | 4.0 | 0.00 | 0.02 | 0.02 | 74 | 1013.6 |
| 20260905060519 | 59 | 217 | 2.0 | 4.0 | 0.00 | 0.02 | 0.02 | 74 | 1013.7 |
| 20260905060039 | 60 | 206 | 2.0 | 5.0 | 0.00 | 0.02 | 0.02 | 74 | 1013.6 |
| 20260905055519 | 60 | 192 | 2.0 | 6.0 | 0.00 | 0.02 | 0.02 | 73 | 1013.7 |
| 20260905055020 | 60 | 222 | 3.0 | 6.0 | 0.00 | 0.02 | 0.02 | 73 | 1013.7 |
| 20260905054535 | 60 | 217 | 4.0 | 7.0 | 0.00 | 0.02 | 0.02 | 72 | 1013.7 |
| 20260905054016 | 60 | 230 | 4.0 | 7.0 | 0.00 | 0.02 | 0.02 | 72 | 1013.7 |
| 20260905052021 | 61 | 221 | 4.0 | 6.0 | 0.00 | 0.02 | 0.02 | 69 | 1013.8 |
| 20260905051019 | 62 | 228 | 3.0 | 8.0 | 0.00 | 0.02 | 0.02 | 69 | 1013.8 |
| 20260905050517 | 62 | 223 | 3.0 | 7.0 | 0.00 | 0.02 | 0.02 | 68 | 1013.8 |
| 20260905045519 | 63 | 223 | 3.0 | 6.0 | 0.00 | 0.02 | 0.02 | 66 | 1013.8 |
| 20260905045019 | 63 | 239 | 3.0 | 8.0 | 0.00 | 0.02 | 0.02 | 66 | 1013.8 |
| 20260905044537 | 63 | 234 | 4.0 | 8.0 | 0.00 | 0.02 | 0.02 | 65 | 1013.8 |
| 20260905044015 | 63 | 232 | 3.0 | 7.0 | 0.00 | 0.02 | 0.02 | 65 | 1013.7 |
| 20260905042020 | 64 | 242 | 3.0 | 6.0 | 0.00 | 0.02 | 0.02 | 63 | 1013.5 |
| 20260905041019 | 65 | 255 | 3.0 | 9.0 | 0.00 | 0.02 | 0.02 | 62 | 1013.4 |
| 20260905040519 | 65 | 242 | 5.0 | 9.0 | 0.00 | 0.02 | 0.02 | 63 | 1013.4 |
| 20260905040035 | 65 | 246 | 5.0 | 8.0 | 0.00 | 0.02 | 0.02 | 63 | 1013.4 |
| 20260905033519 | 66 | 255 | 2.0 | 6.0 | 0.00 | 0.02 | 0.02 | 61 | 1013.3 |
| 20260905032517 | 66 | 258 | 3.0 | 5.0 | 0.00 | 0.02 | 0.02 | 60 | 1013.1 |
| 20260905032023 | 66 | 246 | 2.0 | 6.0 | 0.00 | 0.02 | 0.02 | 59 | 1013.2 |
| 20260905031019 | 67 | 251 | 3.0 | 8.0 | 0.00 | 0.02 | 0.02 | 57 | 1013.0 |
| 20260905030520 | 67 | 264 | 3.0 | 9.0 | 0.00 | 0.02 | 0.02 | 56 | 1013.0 |
| 20260905024020 | 69 | 0 | 0.0 | 0.0 | 0.00 | 0.02 | 0.02 | 46 | 1012.5 |
| 20260905023520 | 69 | 0 | 0.0 | 0.0 | 0.00 | 0.02 | 0.02 | 47 | 1012.6 |